Joplin, MO

7:11 PM CDT on October 14, 2019 (GMT -0500)
Joplin Regional

Weather History for KJLN - August, 2019

Change the Weather History Date:

Sunday, August 11, 2019

  Actual Average Record
Temperature  
Mean Temperature 85 °F 80 °F  
Max Temperature 91 °F 92 °F 104 °F (1999)
Min Temperature 78 °F 69 °F 54 °F (1967)
Degree Days  
Heating Degree Days 0 0  
Month to date heating degree days 0 0  
Since 1 June heating degree days 1 5  
Since 1 July heating degree days 0 0  
Cooling Degree Days 20 16  
Month to date cooling degree days 150 176  
Year to date cooling degree days 1001 1147  
Since 1 June cooling degree days 848 967  
Growing Degree Days 34 (Base 50)    
Moisture  
Dew Point 77 °F    
Average Humidity 83    
Maximum Humidity 97    
Minimum Humidity 68    
Precipitation  
Precipitation 0.01 in 0.10 in 1.30 in (1982)
Month to date precipitation 2.24 1.11  
Year to date precipitation 45.15 28.73  
Sea Level Pressure  
Sea Level Pressure 29.92 in    
Wind  
Wind Speed 7 mph (SSE)    
Max Wind Speed 14 mph    
Max Gust Speed -    
Visibility 10 miles    
Events      
T = Trace of Precipitation, MM = Missing Value Source: NWS Daily Summary

Daily Weather History Graph

Daily Weather History Graph

Search for Another Location

Airport or City:

Astronomy

Aug. 11, 2019 Rise Set
Actual Time 6:31 AM CDT 8:14 PM CDT
Civil Twilight 6:03 AM CDT 8:42 PM CDT
Nautical Twilight 5:29 AM CDT 9:16 PM CDT
Astronomical Twilight 4:53 AM CDT 9:52 PM CDT
Moon 5:51 PM CDT (8/11) 2:55 AM CDT (8/11)
Length of Visible Light 14h 39m
Length of Day
13h 43m
Waxing Gibbous, 87% of the Moon is Illuminated
Aug 11
Waxing Gibbous
Aug 15
Full
Aug 23
Last Quarter
Aug 30
New
Sep 5
First Quarter

Hourly Weather History & Observations

Time (CDT) Temp. Heat Index Dew Point Humidity Pressure Visibility Wind Dir Wind Speed Gust Speed Precip Events Conditions
12:53 AM 82.9 °F 92.8 °F 78.1 °F 85% 29.91 in 10.0 mi South 8.1 mph - N/A   Partly Cloudy
1:53 AM 82.0 °F 91.0 °F 78.1 °F 88% 29.91 in 10.0 mi ESE 4.6 mph - N/A   Overcast
2:53 AM 81.0 °F 87.9 °F 77.0 °F 88% 29.89 in 10.0 mi SSE 6.9 mph - N/A   Partly Cloudy
3:53 AM 80.1 °F 85.4 °F 75.9 °F 87% 29.89 in 10.0 mi South 6.9 mph - N/A   Scattered Clouds
4:53 AM 80.1 °F 85.8 °F 77.0 °F 90% 29.91 in 10.0 mi Calm Calm - N/A   Scattered Clouds
5:53 AM 79.0 °F - 77.0 °F 94% 29.92 in 10.0 mi ESE 5.8 mph - 0.01 in   Overcast
6:53 AM 78.1 °F - 77.0 °F 96% 29.95 in 9.0 mi ESE 3.5 mph - N/A   Overcast
7:53 AM 79.0 °F - 77.0 °F 94% 29.99 in 7.0 mi ESE 3.5 mph - N/A   Overcast
8:53 AM 80.1 °F 85.8 °F 77.0 °F 90% 29.99 in 10.0 mi South 3.5 mph - N/A   Overcast
9:53 AM 79.0 °F - 73.9 °F 84% 30.01 in 10.0 mi North 10.4 mph - N/A   Overcast
10:53 AM 79.0 °F - 73.0 °F 82% 29.99 in 10.0 mi ESE 6.9 mph - 0.00 in   Clear
11:53 AM 84.0 °F 91.9 °F 75.0 °F 74% 29.97 in 10.0 mi SE 9.2 mph - N/A   Clear
12:53 PM 86.0 °F 96.0 °F 75.9 °F 72% 29.96 in 10.0 mi SSE 9.2 mph - N/A   Clear
1:53 PM 87.1 °F 99.8 °F 78.1 °F 74% 29.93 in 10.0 mi SSE 12.7 mph - N/A   Clear
2:53 PM 89.1 °F 101.4 °F 77.0 °F 67% 29.92 in 10.0 mi SSE 10.4 mph - N/A   Clear
3:53 PM 90.0 °F 105.8 °F 79.0 °F 70% 29.91 in 10.0 mi SSE 9.2 mph - N/A   Clear
4:53 PM 90.0 °F 104.5 °F 78.1 °F 68% 29.89 in 10.0 mi SE 13.8 mph - N/A   Clear
5:53 PM 90.0 °F 104.5 °F 78.1 °F 68% 29.88 in 10.0 mi SSE 12.7 mph - N/A   Clear
6:53 PM 89.1 °F 103.2 °F 78.1 °F 70% 29.87 in 10.0 mi SSE 8.1 mph - N/A   Clear
7:53 PM 86.0 °F 98.3 °F 78.1 °F 77% 29.86 in 10.0 mi SSE 6.9 mph - N/A   Clear
8:53 PM 84.0 °F 93.7 °F 77.0 °F 79% 29.86 in 10.0 mi SSE 6.9 mph - N/A   Clear
9:53 PM 82.9 °F 90.8 °F 75.9 °F 79% 29.86 in 10.0 mi SSE 9.2 mph - N/A   Clear
10:53 PM 82.0 °F 88.6 °F 75.0 °F 79% 29.86 in 10.0 mi South 10.4 mph - N/A   Clear
11:53 PM 81.0 °F 86.2 °F 73.9 °F 79% 29.86 in 10.0 mi South 10.4 mph - N/A   Clear